Location: Quedlinburg
(51.7921°N, 11.1414°E)
Time: 13:36:46
(UTC+02:00)

RS-15 - Pass Details

Date: 20 March 2026
Orbit: 1893 x 2152 km, 64.8° (Epoch: 22 April)

Event Time Altitude Azimuth Distance (km) Brightness Sun altitude
Rises 05:22:30 0° 320° (NW) 5,414 10.1 -9.4°
Reaches altitude 10° 05:26:00 10° 314° (NW) 4,444 9.6 -8.9°
Maximum altitude 05:36:20 41° 250° (WSW) 2,745 8.4 -7.3°
Drops below altitude 10° 05:47:06 10° 185° (S) 4,607 9.9 -5.7°
Sets 05:50:51 0° 179° (S) 5,629 10.4 -5.1°
